Погода в Эраке

Иран     34°05′34″N   49°42′53″E
темп.,
°C
ветер,
м/с
пор.,
м/с
влажн.,
%
обл.,
%
осадки,
мм/ч
давл.,
гПа
погр.,
м
15 мая, сб
сб1501:30+12ююз2273100 0.0 1015157
04:30+11св1174100 0.0 101537
07:30+12ссв11717 0.0 1015202
10:30+16всв235234 0.0 10141247
13:30+20св333783 0.0 10122520
16:30+18всв344336 0.6 10101256
19:30+14ююв7857100 1.8 1015523
22:30+14ююв455986 2.9 1015356
16 мая, вс
вс1601:30+12ююв347023 0.0 1014123
04:30+12ююв22735 0.0 101417
07:30+13юв236339 0.0 1015122
10:30+18вюв34415 0.0 10131362
13:30+21юв343085 0.0 10112887
16:30+19с123982 0.3 1011430
19:30+19ссв243721 0.3 1012298
22:30+16юв345042 1.4 101498
17 мая, пн
пн1701:30+15ю225758 0.0 101432
04:30+14ю225878 0.0 101425
07:30+16ююз11514 0.0 101563
10:30+21св11334 0.0 10141259
13:30+24ссв252292 0.0 10123404
16:30+25ссз141712 0.1 10102687
19:30+20ссв563463 0.0 1013377
22:30+18ююв33450 0.0 101564
18 мая, вт
вт1801:30+16ююз22480 0.0 101524
04:30+15юз11470 0.0 101411
07:30+18ю22381 0.0 101438
10:30+24ююз251722 0.0 10122222
13:30+27зюз6814100 0.0 10104100
16:30+27зюз1012145 0.0 10083881
19:30+24зюз1015190 0.0 1010787
22:30+20юз47220 0.0 1012121
19 мая, ср
ср1901:30+18юз22260 0.0 101214
04:30+16зюз11320 0.0 101111
07:30+17ссз11330 0.0 101337
10:30+21с22220 0.0 1012874
13:30+26ссз36150 0.0 10092258
16:30+28ссз46110 0.0 10083353
19:30+24с46160 0.0 1009202
22:30+20ссз22270 0.0 101212